Regional Weather Roundup
Issued by NWS Jackson, KY

Home | Current Version | Previous Version | Text Only | Print | Product List | Glossary Off
Versions: 1 2 3 4 5 6 7 8 9 10 11 12 13 14 15 16 17 18 19 20 21 22 23 24 25 26 27 28 29 30 31 32 33 34 35 36 37 38 39 40 41 42 43 44 45 46 47 48 49 50

000
ASUS43 KJKL 250805
RWRJKL

EAST KENTUCKY HOURLY WEATHER ROUNDUP
NATIONAL WEATHER SERVICE JACKSON KY
300 AM EST THU DEC 25 2014

NOTE: "FAIR" INDICATES FEW OR NO CLOUDS BELOW 12,000 FEET WITH
NO SIGNIFICANT WEATHER AND/OR OBSTRUCTIONS TO VISIBILITY.

* THESE REPORTS ARE NOT UNDER NWS QUALITY CONTROL AND MAY NOT
  REPORT WEATHER SUCH AS PRECIPITATION AND FOG.

KYZ079-080-083-085-087-088-110-112-115-119-120-250900
...EASTERN KENTUCKY...

CITY           SKY/WX    TMP DP  RH WIND       PRES   REMARKS
JACKSON        CLOUDY    39  32  76 W8G21     29.86R WCI  33
LONDON         CLOUDY    40  33  76 W8        29.91R WCI  34
SOMERSET*      CLOUDY    37  34  87 W10       29.94R WCI  30
MONTICELLO*    MOCLDY    40  36  86 W13       29.96R WCI  32
MIDDLESBORO*   MOCLDY    40  32  75 CALM      29.92R
HARLAN APT*    CLOUDY    37  34  87 W6        29.89R WCI  33
BLACK MTN*       N/A     30  30 100 W1          N/A
PIKEVILLE APT* CLOUDY    39  36  87 SW3       29.85R
BIG SANDY*     CLOUDY    41  37  87 W8        29.84R
MOREHEAD APT*  CLOUDY    39  34  81 SW13      29.87R WCI  32
$$

KYZ035-036-041-042-044-050-067-078-099-250900
...CENTRAL KENTUCKY...

CITY           SKY/WX    TMP DP  RH WIND       PRES   REMARKS
MT STERLING*   CLOUDY    37  36  93 W10G21    29.88R WCI  30
FLEMING/MASON* MIX PCPN  38  35  88 W20       29.85R WCI  28
DANVILLE*      CLOUDY    37  34  87 W9        29.90R WCI  31
RICHMOND*      CLOUDY    39  34  81 SW13G20   29.89R WCI  32
LEXINGTON      CLOUDY    38  34  85 W14G23    29.87R WCI  30
FRANKFORT      CLOUDY    38  34  85 W10G20    29.87R WCI  31
$$

KYZ091>093-OHZ055-061-077-WVZ005-015-034-035-042-250900
...SOUTHERN OHIO/WEST VIRGINIA...

CITY           SKY/WX    TMP DP  RH WIND       PRES   REMARKS
COVINGTON      CLOUDY    38  32  79 W12G21    29.81R WCI  30
COLUMBUS       LGT RAIN  39  33  79 SW21G26   29.74R WCI  29
DAYTON         CLOUDY    38  34  85 W22       29.77R WCI  27
WILMINGTON     CLOUDY    38  32  79 W20G28    29.77R WCI  28
HUNTINGTON     CLOUDY    41  35  79 W8        29.82R
CHARLESTON     CLOUDY    41  37  86 W7        29.80R
PINEVILLE*     RAIN      43  42  96 MISG      29.85R
BECKLEY        LGT RAIN  37  34  89 W9        29.78R WCI  30
BLUEFIELD      CLOUDY    39  33  79 W12G22    29.79R WCI  32
$$

VAZ002-007-008-TNZ017-027-036-066-071-250900
...SOUTHWEST VIRGINIA/EAST TENNESSEE...

CITY           SKY/WX    TMP DP  RH WIND       PRES   REMARKS
WISE*          LGT RAIN  37  37 100 W6        29.83R WCI  33
JONESVILLE*    CLOUDY    39  34  81 W8        29.91R WCI  34
ABINGDON*      CLOUDY    42  37  80 W6        29.83S
BRISTOL        MOCLDY    43  37  79 SW9       29.86R
KNOXVILLE      LGT RAIN  41  35  79 SW12      29.94R
OAK RIDGE      MOCLDY    42  34  73 W7        29.95R
CROSSVILLE     CLOUDY    38  33  82 W8        29.94R WCI  32
NASHVILLE      CLOUDY    41  35  79 SW7       29.98R
$$

...KEY TO REMARKS...
VSB - VISIBILITY IN MILES
WCI - WIND CHILL INDEX
HX  - HEAT INDEX

$$



USA.gov is the U.S. government's official web portal to all federal, state and local government web resources and services.